Date String (YYYY-MM-DD hh:mm:ss) UTC,Instrument flags,Ambient pressure (hPa),Sample flow (lpm),Bypass flow (lpm),Sample temperature (°C),Ambient temperature (°C),ASC tube jacket temperature (°C),LED temperature (°C),Box temperature (°C),Sample RH (%),Span deviation,Mass concentration (μg/m³),Mass concentration (μg/m³),Mass concentration (μg/m³)
DateTimeUTC,F1_M11,P_M11,Q1_M11,Q2_M11,T1_M11,T2_M11,T3_M11,T4_M11,T5_M11,U1_M11,ZSPAN_M11,X0_M11,X2_M11,X1_M11
2022-11-03 10:00:00,,0816.0,5.00,0.00,27.3,25.7,00.0,36.1,29.1,07.3,0000.0,0008.75,0002.35,0001.50
2022-11-03 10:01:00,,0816.0,5.00,0.00,27.3,25.7,00.0,36.1,29.2,07.3,0000.0,0008.89,0002.34,0001.50
2022-11-03 10:02:00,,0816.1,5.00,0.00,27.3,25.7,00.0,36.0,29.1,07.3,0000.0,0008.83,0002.30,0001.50
2022-11-03 10:03:00,,0816.1,5.00,0.00,27.3,25.7,00.0,36.0,29.1,07.3,0000.0,0008.86,0002.30,0001.50
2022-11-03 10:04:00,,0816.1,5.00,0.00,27.3,25.7,00.0,36.0,29.2,07.3,0000.0,0008.82,0002.29,0001.51
2022-11-03 10:05:00,,0816.1,5.00,0.00,27.3,25.7,00.0,36.0,29.2,07.3,0000.0,0008.36,0002.29,0001.51
2022-11-03 10:06:00,,0816.2,5.00,0.00,27.3,25.7,00.0,36.1,29.1,07.3,0000.0,0007.96,0002.23,0001.50
2022-11-03 10:07:00,,0816.3,5.01,0.00,27.3,25.7,00.0,36.1,29.1,07.4,0000.0,0008.36,0002.22,0001.51
2022-11-03 10:08:00,,0816.3,5.02,0.00,27.3,25.7,00.0,36.0,29.2,07.5,0000.0,0008.24,0002.18,0001.49
2022-11-03 10:09:00,,0816.3,4.98,0.00,27.3,25.7,00.0,36.0,29.2,07.6,0000.0,0008.00,0002.18,0001.48
2022-11-03 10:10:00,,0816.3,5.01,0.00,27.3,25.7,00.0,36.0,29.2,07.6,0000.0,0008.00,0002.14,0001.46
2022-11-03 10:11:00,,0816.3,5.01,0.00,27.3,25.7,00.0,36.0,29.2,07.8,0000.0,0007.45,0002.14,0001.46
2022-11-03 10:12:00,,0816.3,4.98,0.00,27.3,25.7,00.0,36.0,29.2,07.9,0000.0,0007.67,0002.18,0001.47
2022-11-03 10:13:00,,0816.3,5.00,0.00,27.3,25.7,00.0,36.0,29.2,07.9,0000.0,0008.35,0002.18,0001.47
2022-11-03 10:14:00,,0816.3,5.01,0.00,27.3,25.7,00.0,36.0,29.2,08.0,0000.0,0008.41,0002.19,0001.46
2022-11-03 10:15:00,,0816.3,4.98,0.00,27.3,25.7,00.0,36.0,29.2,08.0,0000.0,0008.74,0002.20,0001.44
2022-11-03 10:16:00,,0816.3,5.01,0.00,27.3,25.7,00.0,36.0,29.2,08.0,0000.0,0009.42,0002.17,0001.44
2022-11-03 10:17:00,,0816.3,5.01,0.00,27.3,25.7,00.0,36.1,29.1,08.1,0000.0,0009.55,0002.16,0001.44
2022-11-03 10:18:00,,0816.4,5.00,0.00,27.2,25.7,00.0,36.1,29.1,08.1,0000.0,0008.72,0002.15,0001.44
2022-11-03 10:19:00,,0816.4,4.99,0.00,27.2,25.7,00.0,36.1,29.1,08.2,0000.0,0008.58,0002.16,0001.45
2022-11-03 10:20:00,,0816.3,5.00,0.00,27.2,25.6,00.0,36.1,29.1,08.1,0000.0,0008.79,0002.19,0001.47
2022-11-03 10:21:00,,0816.4,5.00,0.00,27.2,25.6,00.0,36.1,29.0,08.2,0000.0,0009.00,0002.23,0001.49
2022-11-03 10:22:00,,0816.4,5.00,0.00,27.2,25.5,00.0,36.1,29.0,08.2,0000.0,0009.30,0002.28,0001.51
2022-11-03 10:23:00,,0816.4,5.00,0.00,27.1,25.5,00.0,36.0,29.0,08.2,0000.0,0009.31,0002.29,0001.50
2022-11-03 10:24:00,,0816.4,5.01,0.00,27.1,25.5,00.0,36.0,29.0,08.2,0000.0,0009.60,0002.31,0001.50
2022-11-03 10:25:00,,0816.3,5.00,0.00,27.1,25.5,00.0,36.0,29.0,08.1,0000.0,0009.70,0002.37,0001.50
2022-11-03 10:26:00,,0816.4,5.00,0.00,27.1,25.5,00.0,36.0,29.0,08.1,0000.0,0010.02,0002.43,0001.52
2022-11-03 10:27:00,,0816.4,4.99,0.00,27.1,25.5,00.0,36.0,28.9,08.1,0000.0,0009.55,0002.51,0001.52
2022-11-03 10:28:00,,0816.4,5.01,0.00,27.1,25.4,00.0,36.0,28.9,08.1,0000.0,0009.99,0002.59,0001.53
2022-11-03 10:29:00,,0816.5,5.01,0.00,27.1,25.4,00.0,36.0,28.9,08.2,0000.0,0010.23,0002.62,0001.54
2022-11-03 10:30:00,,0816.4,4.99,0.00,27.0,25.4,00.0,36.0,28.9,08.2,0000.0,0010.11,0002.71,0001.55
2022-11-03 10:31:00,,0816.5,4.99,0.00,27.0,25.4,00.0,36.0,28.8,08.2,0000.0,0010.17,0002.77,0001.58
2022-11-03 10:32:00,,0816.5,5.00,0.00,27.0,25.3,00.0,35.9,28.8,08.2,0000.0,0010.09,0002.79,0001.59
2022-11-03 10:33:00,,0816.5,5.00,0.00,27.0,25.3,00.0,35.9,28.8,08.2,0000.0,0009.78,0002.75,0001.57
2022-11-03 10:34:00,,0816.6,5.01,0.00,27.0,25.3,00.0,35.9,28.8,08.3,0000.0,0009.46,0002.74,0001.58
2022-11-03 10:35:00,,0816.5,4.99,0.00,27.0,25.3,00.0,35.9,28.8,08.3,0000.0,0008.66,0002.78,0001.60
2022-11-03 10:36:00,,0816.5,4.99,0.00,27.0,25.2,00.0,35.9,28.7,08.2,0000.0,0009.95,0002.74,0001.61
2022-11-03 10:37:00,,0816.5,5.01,0.00,26.9,25.2,00.0,35.9,28.7,08.2,0000.0,0009.82,0002.69,0001.63
2022-11-03 10:38:00,,0816.5,5.00,0.00,26.9,25.2,00.0,35.9,28.7,08.2,0000.0,0009.76,0002.68,0001.65
2022-11-03 10:39:00,,0816.5,5.00,0.00,26.9,25.2,00.0,35.9,28.7,08.2,0000.0,0009.23,0002.64,0001.66
2022-11-03 10:40:00,,0816.5,5.00,0.00,26.9,25.2,00.0,35.8,28.7,08.2,0000.0,0009.84,0002.65,0001.66
2022-11-03 10:41:00,,0816.5,5.00,0.00,26.9,25.2,00.0,35.8,28.7,08.2,0000.0,0009.97,0002.64,0001.66
2022-11-03 10:42:00,,0816.7,5.00,0.00,26.9,25.2,00.0,35.8,28.7,08.2,0000.0,0009.71,0002.62,0001.65
2022-11-03 10:43:00,,0816.6,5.00,0.00,26.9,25.1,00.0,35.8,28.7,08.2,0000.0,0009.95,0002.65,0001.66
2022-11-03 10:44:00,,0816.6,5.00,0.00,26.9,25.1,00.0,35.8,28.7,08.2,0000.0,0010.19,0002.72,0001.67
2022-11-03 10:45:00,,0817.2,5.00,0.00,26.9,25.1,00.0,35.8,28.7,08.2,0000.0,0009.99,0002.70,0001.67
2022-11-03 10:46:00,,0816.8,5.00,0.00,26.9,25.1,00.0,35.8,28.7,08.2,0000.0,0010.46,0002.69,0001.67
2022-11-03 10:47:00,,0816.7,5.00,0.00,26.8,25.1,00.0,35.7,28.6,08.2,0000.0,0009.75,0002.67,0001.66
2022-11-03 10:48:00,,0816.7,5.00,0.00,26.8,25.1,00.0,35.7,28.6,08.2,0000.0,0009.01,0002.74,0001.67
2022-11-03 10:49:00,,0816.6,4.99,0.00,26.8,25.2,00.0,35.7,28.6,08.2,0000.0,0009.04,0002.77,0001.67
2022-11-03 10:50:00,,0816.7,5.00,0.00,26.8,25.1,00.0,35.7,28.7,08.2,0000.0,0009.26,0002.82,0001.67
2022-11-03 10:51:00,,0816.6,5.00,0.00,26.8,25.2,00.0,35.7,28.7,08.2,0000.0,0008.54,0002.85,0001.67
2022-11-03 10:52:00,,0816.7,5.00,0.00,26.8,25.2,00.0,35.7,28.7,08.2,0000.0,0009.26,0002.83,0001.67
2022-11-03 10:53:00,,0817.0,5.00,0.00,26.8,25.2,00.0,35.7,28.6,08.2,0000.0,0009.82,0002.91,0001.68
2022-11-03 10:54:00,,0817.0,5.01,0.00,26.8,25.2,00.0,35.7,28.7,08.2,0000.0,0010.27,0003.00,0001.69
2022-11-03 10:55:00,,0816.9,5.00,0.00,26.8,25.2,00.0,35.7,28.7,08.2,0000.0,0010.64,0003.05,0001.71
2022-11-03 10:56:00,,0817.0,5.00,0.00,26.8,25.2,00.0,35.7,28.7,08.2,0000.0,0011.63,0003.11,0001.73
2022-11-03 10:57:00,,0816.8,5.01,0.00,26.8,25.2,00.0,35.7,28.7,08.3,0000.0,0011.71,0003.15,0001.74
2022-11-03 10:58:00,,0816.8,4.98,0.00,26.8,25.2,00.0,35.7,28.7,08.3,0000.0,0011.80,0003.23,0001.77
2022-11-03 10:59:00,,0816.8,5.00,0.00,26.8,25.2,00.0,35.6,28.7,08.3,0000.0,0011.83,0003.23,0001.78
